Adak, AK

2:48 AM HDT on May 23, 2017 (GMT -0900)
Adak

Weather History for PADK - November, 2014

Change the Weather History Date:

Sunday, November 2, 2014

  Actual Average Record
Temperature  
Mean Temperature 38 °F -  
Max Temperature 42 °F 43 °F 51 °F (2011)
Min Temperature 35 °F 35 °F 28 °F (2007)
Degree Days  
Heating Degree Days 26    
Moisture  
Dew Point 27 °F    
Average Humidity 62    
Maximum Humidity 75    
Minimum Humidity 49    
Precipitation  
Precipitation 0.02 in - - ()
Sea Level Pressure  
Sea Level Pressure 29.96 in    
Wind  
Wind Speed 13 mph (NW)    
Max Wind Speed 22 mph    
Max Gust Speed 30 mph    
Visibility 9 miles    
Events      
Averages and records for this station are not official NWS values.
T = Trace of Precipitation, MM = Missing Value Source: NWS Daily Summary

Daily Weather History Graph

Daily Weather History Graph

Search for Another Location

Airport or City:

Trip Planner

Search our weather history database for the weather conditions in past years. The results will help you decide how hot, cold, wet, or windy it might be!

Date:

Astronomy

Nov. 02, 2014 Rise Set
Actual Time 8:43 AM HST 6:16 PM HST
Civil Twilight 8:07 AM HST 6:51 PM HST
Nautical Twilight 7:27 AM HST 7:31 PM HST
Astronomical Twilight 6:48 AM HST 8:10 PM HST
Moon 4:26 PM HST (11/2) 3:28 AM HST (11/2)
Length of Visible Light 10h 43m
Length of Day
9h 32m
Waxing Gibbous, 80% of the Moon is Illuminated
Nov 2
Waxing Gibbous
Nov 6
Full
Nov 14
Last Quarter
Nov 22
New
Nov 29
First Quarter

Hourly Weather History & Observations

Time (HST) Temp. Windchill Dew Point Humidity Pressure Visibility Wind Dir Wind Speed Gust Speed Precip Events Conditions
12:16 AM 37.4 °F 29.3 °F 26.6 °F 65% 29.75 in 10.0 mi NW 12.7 mph 16.1 mph N/A   Mostly Cloudy
12:36 AM 37.4 °F 31.4 °F 24.8 °F 60% 29.76 in 10.0 mi NW 8.1 mph - N/A   Scattered Clouds
12:56 AM 37.4 °F 30.8 °F 26.6 °F 65% 29.77 in 10.0 mi WNW 9.2 mph - N/A   Mostly Cloudy
1:16 AM 39.2 °F 29.3 °F 26.6 °F 61% 29.78 in 9.0 mi NNW 20.7 mph - N/A   Mostly Cloudy
1:36 AM 37.4 °F 30.3 °F 26.6 °F 65% 29.79 in 10.0 mi WNW 10.4 mph 17.3 mph N/A   Mostly Cloudy
1:56 AM 37.4 °F 30.3 °F 26.6 °F 65% 29.79 in 10.0 mi NW 10.4 mph 19.6 mph N/A   Mostly Cloudy
1:16 AM 37.4 °F 28.2 °F 26.6 °F 65% 29.79 in 10.0 mi WNW 16.1 mph - N/A   Mostly Cloudy
1:36 AM 37.4 °F 29.3 °F 24.8 °F 60% 29.80 in 10.0 mi WNW 12.7 mph - N/A   Mostly Cloudy
1:56 AM 37.4 °F 29.8 °F 24.8 °F 60% 29.80 in 10.0 mi NW 11.5 mph - N/A   Scattered Clouds
2:16 AM 39.2 °F 32.0 °F 24.8 °F 56% 29.80 in 10.0 mi NW 11.5 mph 17.3 mph N/A   Overcast
2:36 AM 39.2 °F 32.5 °F 26.6 °F 61% 29.82 in 10.0 mi WNW 10.4 mph 25.3 mph N/A   Overcast
2:56 AM 39.2 °F 31.6 °F 26.6 °F 61% 29.82 in 10.0 mi NNW 12.7 mph 18.4 mph N/A   Mostly Cloudy
3:16 AM 39.2 °F 33.0 °F 26.6 °F 61% 29.82 in 10.0 mi NNW 9.2 mph 16.1 mph N/A   Overcast
3:36 AM 37.4 °F 28.9 °F 26.6 °F 65% 29.83 in 10.0 mi NW 13.8 mph - N/A   Overcast
3:56 AM 39.2 °F 31.2 °F 24.8 °F 56% 29.84 in 10.0 mi NW 13.8 mph 18.4 mph N/A   Overcast
4:16 AM 39.2 °F 31.6 °F 26.6 °F 61% 29.84 in 10.0 mi NW 12.7 mph 19.6 mph N/A   Overcast
4:36 AM 39.2 °F 32.0 °F 26.6 °F 61% 29.84 in 10.0 mi NW 11.5 mph 18.4 mph N/A   Overcast
4:56 AM 37.4 °F 28.5 °F 28.4 °F 70% 29.85 in 10.0 mi NW 15.0 mph 21.9 mph N/A   Mostly Cloudy
5:16 AM 39.2 °F 31.2 °F 24.8 °F 56% 29.85 in 10.0 mi NNW 13.8 mph 24.2 mph N/A   Mostly Cloudy
5:36 AM 39.2 °F 30.2 °F 26.6 °F 61% 29.86 in 10.0 mi NW 17.3 mph 23.0 mph N/A   Mostly Cloudy
5:56 AM 39.2 °F 30.5 °F 24.8 °F 56% 29.86 in 10.0 mi NW 16.1 mph 20.7 mph N/A   Overcast
6:16 AM 39.2 °F 31.2 °F 26.6 °F 61% 29.87 in 10.0 mi NW 13.8 mph 21.9 mph N/A   Overcast
6:36 AM 39.2 °F 30.8 °F 24.8 °F 56% 29.88 in 10.0 mi NW 15.0 mph 23.0 mph N/A   Overcast
6:56 AM 39.2 °F 29.8 °F 23.0 °F 52% 29.88 in 10.0 mi NNW 18.4 mph 25.3 mph N/A   Overcast
7:16 AM 39.2 °F 31.6 °F 24.8 °F 56% 29.89 in 10.0 mi NW 12.7 mph 17.3 mph N/A   Overcast
7:36 AM 35.6 °F 25.5 °F 26.6 °F 70% 29.91 in 3.0 mi NNW 17.3 mph 27.6 mph 0.01 in   Overcast
7:56 AM 37.4 °F 27.8 °F 26.6 °F 65% 29.92 in 10.0 mi WNW 17.3 mph 21.9 mph 0.01 in   Mostly Cloudy
8:16 AM 37.4 °F 28.5 °F 24.8 °F 60% 29.92 in 10.0 mi NW 15.0 mph 20.7 mph N/A   Overcast
8:36 AM 37.4 °F 28.9 °F 26.6 °F 65% 29.93 in 10.0 mi WNW 13.8 mph 21.9 mph N/A   Overcast
8:56 AM 37.4 °F 30.3 °F 26.6 °F 65% 29.94 in 10.0 mi WNW 10.4 mph - N/A   Mostly Cloudy
9:16 AM 39.2 °F 31.6 °F 26.6 °F 61% 29.95 in 10.0 mi NW 12.7 mph 23.0 mph N/A   Overcast
9:36 AM 39.2 °F 30.8 °F 24.8 °F 56% 29.95 in 10.0 mi WNW 15.0 mph 26.5 mph N/A   Overcast
9:56 AM 39.2 °F 31.2 °F 24.8 °F 56% 29.95 in 10.0 mi WNW 13.8 mph 19.6 mph N/A   Mostly Cloudy
10:16 AM 41.0 °F 33.9 °F 24.8 °F 53% 29.96 in 10.0 mi WNW 12.7 mph 19.6 mph N/A   Overcast
10:36 AM 41.0 °F 32.8 °F 24.8 °F 53% 29.97 in 10.0 mi NNW 16.1 mph 24.2 mph N/A   Overcast
10:56 AM 37.4 °F 29.8 °F 28.4 °F 70% 29.99 in 2.5 mi WNW 11.5 mph - 0.01 in   Overcast
11:16 AM 39.2 °F 31.6 °F 28.4 °F 65% 29.98 in 10.0 mi WNW 12.7 mph 21.9 mph N/A   Mostly Cloudy
11:36 AM 39.2 °F 32.5 °F 30.2 °F 70% 29.99 in 5.0 mi WNW 10.4 mph - N/A   Overcast
11:56 AM 41.0 °F 33.5 °F 28.4 °F 61% 29.99 in 9.0 mi WNW 13.8 mph 17.3 mph N/A   Mostly Cloudy
12:16 PM 39.2 °F 34.2 °F 30.2 °F 70% 29.99 in 10.0 mi West 6.9 mph 23.0 mph N/A   Overcast
12:36 PM 41.0 °F 33.5 °F 30.2 °F 65% 29.99 in 10.0 mi WNW 13.8 mph 21.9 mph N/A   Mostly Cloudy
12:56 PM 41.0 °F 31.4 °F 30.2 °F 65% 29.99 in 10.0 mi NW 21.9 mph 27.6 mph N/A   Mostly Cloudy
1:16 PM 42.8 °F 34.3 °F 30.2 °F 61% 29.99 in 10.0 mi West 19.6 mph 23.0 mph N/A   Overcast
1:36 PM 42.8 °F 34.8 °F 30.2 °F 61% 30.00 in 10.0 mi NW 17.3 mph 24.2 mph N/A   Mostly Cloudy
1:56 PM 39.2 °F 31.2 °F 30.2 °F 70% 30.00 in 4.0 mi WNW 13.8 mph 26.5 mph N/A   Overcast
2:16 PM 42.8 °F 35.4 °F 30.2 °F 61% 30.00 in 7.0 mi NNW 15.0 mph 27.6 mph N/A   Overcast
2:36 PM 39.2 °F 31.6 °F 28.4 °F 65% 30.01 in 10.0 mi NNW 12.7 mph 20.7 mph N/A   Mostly Cloudy
2:56 PM 39.2 °F 31.6 °F 30.2 °F 70% 30.02 in 5.0 mi NNW 12.7 mph 23.0 mph 0.01 in   Mostly Cloudy
3:16 PM 39.2 °F 32.0 °F 26.6 °F 61% 30.02 in 10.0 mi NW 11.5 mph 19.6 mph N/A   Mostly Cloudy
3:36 PM 41.0 °F 34.3 °F 28.4 °F 61% 30.02 in 10.0 mi NNW 11.5 mph 17.3 mph N/A   Overcast
3:56 PM 39.2 °F 31.6 °F 28.4 °F 65% 30.03 in 10.0 mi NW 12.7 mph 25.3 mph N/A   Mostly Cloudy
4:16 PM 41.0 °F 32.8 °F 28.4 °F 61% 30.04 in 10.0 mi NNW 16.1 mph 23.0 mph N/A   Mostly Cloudy
4:36 PM 39.2 °F 29.3 °F 28.4 °F 65% 30.05 in 8.0 mi North 20.7 mph 27.6 mph N/A   Mostly Cloudy
4:56 PM 39.2 °F 30.8 °F 28.4 °F 65% 30.06 in 10.0 mi NNW 15.0 mph 20.7 mph N/A   Mostly Cloudy
5:16 PM 37.4 °F 28.9 °F 28.4 °F 70% 30.07 in 3.0 mi NW 13.8 mph 29.9 mph N/A   Mostly Cloudy
5:36 PM 39.2 °F 30.2 °F 28.4 °F 65% 30.07 in 9.0 mi NW 17.3 mph 25.3 mph N/A   Mostly Cloudy
5:56 PM 39.2 °F 30.8 °F 24.8 °F 56% 30.08 in 10.0 mi NW 15.0 mph - 0.01 in   Overcast
6:16 PM 39.2 °F 31.2 °F 26.6 °F 61% 30.09 in 10.0 mi NW 13.8 mph 27.6 mph N/A   Overcast
6:36 PM 39.2 °F 29.8 °F 28.4 °F 65% 30.10 in 5.0 mi NW 18.4 mph 26.5 mph N/A   Mostly Cloudy
6:56 PM 39.2 °F 30.2 °F 26.6 °F 61% 30.10 in 10.0 mi NW 17.3 mph - N/A   Partly Cloudy
7:16 PM 39.2 °F 31.2 °F 26.6 °F 61% 30.11 in 10.0 mi NNW 13.8 mph 21.9 mph N/A   Scattered Clouds
7:36 PM 39.2 °F 30.8 °F 28.4 °F 65% 30.12 in 10.0 mi NNW 15.0 mph 26.5 mph N/A   Mostly Cloudy
7:56 PM 39.2 °F 30.5 °F 26.6 °F 61% 30.13 in 10.0 mi NW 16.1 mph 20.7 mph N/A   Mostly Cloudy
8:16 PM 39.2 °F 31.2 °F 28.4 °F 65% 30.13 in 10.0 mi NNW 13.8 mph 21.9 mph N/A   Mostly Cloudy
8:36 PM 41.0 °F 33.1 °F 28.4 °F 61% 30.13 in 10.0 mi NW 15.0 mph 20.7 mph N/A   Overcast
8:56 PM 39.2 °F 32.0 °F 28.4 °F 65% 30.14 in 10.0 mi WNW 11.5 mph 16.1 mph N/A   Overcast
9:16 PM 39.2 °F 33.0 °F 28.4 °F 65% 30.15 in 10.0 mi WNW 9.2 mph - N/A   Overcast
9:36 PM 39.2 °F 33.0 °F 28.4 °F 65% 30.15 in 10.0 mi WNW 9.2 mph - N/A   Overcast
9:56 PM 37.4 °F 32.1 °F 28.4 °F 70% 30.16 in 5.0 mi NNW 6.9 mph - N/A   Overcast
10:16 PM 37.4 °F 28.5 °F 30.2 °F 75% 30.17 in 6.0 mi NW 15.0 mph 19.6 mph N/A   Overcast
10:36 PM 39.2 °F 29.8 °F 28.4 °F 65% 30.15 in 10.0 mi NNW 18.4 mph 23.0 mph 0.01 in   Mostly Cloudy
10:56 PM 39.2 °F 33.6 °F 28.4 °F 65% 30.16 in 10.0 mi WNW 8.1 mph - 0.01 in   Mostly Cloudy